Weather in Soldatskoye

Russia / Belgorod Oblast     50°43′08″N   35°46′47″E
temp.,
°C
wind,
m/s
gust,
m/s
humid.,
%
clouds,
%
prec.,
mm/h
press.,
hPa
HPBL,
m
14 may, fri
fri1400:00+11e346999 0.0 101463
03:00+10e3584100 0.0 101487
06:00+12ese41093100 0.2 1012220
09:00+16se61185100 1.6 1011524
12:00+21sse71069100 0.0 10101332
15:00+22sse71168100 0.0 10091423
18:00+20s51076100 1.4 1009350
21:00+16ssw3686100 2.0 1009102
15 may, sat
sat1500:00+14ssw338859 0.0 101033
03:00+12ssw338853 0.0 101131
06:00+12s3893100 0.0 1011179
09:00+17ssw587613 0.0 1012460
12:00+20ssw6861100 0.0 10121219
15:00+21ssw6953100 0.0 10122428
18:00+19s497272 0.2 1012399
21:00+15s228221 0.3 101313
16 may, sun
sun1600:00+15s2279100 0.1 101319
03:00+13sse33855 0.1 101332
06:00+13s22844 0.0 101431
09:00+19s12660 0.0 1014340
12:00+22sse125353 0.0 10141225
15:00+23e1245100 0.0 10131803
18:00+22ene2362100 0.0 1011175
21:00+18ne477085 0.0 1011111
17 may, mon
mon1700:00+16ne378983 0.0 1010115
03:00+15ene4989100 0.0 1008163
06:00+15e5118258 0.0 1007228
09:00+19ese61271100 0.0 1006464
12:00+22se8146282 0.0 10061069
15:00+24sse6959100 0.0 10061234
18:00+22se486892 0.0 1005501
21:00+18se2287100 2.9 100513
18 may, tue
tue1800:00+17se369199 0.4 100598
03:00+15sw3598100 0.4 1005119
06:00+16s3498100 0.5 1006191
09:00+15wsw4797100 0.8 1007426
12:00+19sw567553 0.4 10081080
15:00+20sw356882 1.9 10081241
18:00+17ssw3584100 2.3 1008165
21:00+15ssw22885 2.4 100811